Weather Roundup
Issued by NWS

Home | Current Version | Previous Version | Graphics & Text | Print | Product List | Glossary Off
Versions: 1 2 3 4 5 6 7 8 9 10 11 12 13 14 15 16 17 18 19 20 21 22 23 24 25 26 27 28 29 30 31 32 33 34 35 36 37 38 39 40 41 42 43 44 45 46 47 48 49 50

799
NZUS93 KARX 271959
HRRWXR

CURRENT HOURLY OBSERVATIONS ACROSS
MUCH OF THE UPPER MISSISSIPPI VALLEY
NATIONAL WEATHER SERVICE LA CROSSE WI
300 PM CDT TUE SEP 27 2016


...SOUTHEAST MINNESOTA...


CITY           SKY/WX    TMP DP  RH WIND       PRES   REMARKS
ROCHESTER      CLOUDY    61  34  36 NW20G29   29.78S
ROCHESTER/MAYO FAIR      61  34  36 W26G38    29.76F
WINONA         PTSUNNY   59  43  55 NW15      29.75F
AUSTIN         MOSUNNY   63  32  31 W21G28    29.79F
ALBERT LEA     SUNNY     64  34  32 NW13G22   29.80F
DODGE CENTER   CLOUDY    61  32  33 NW16G30   29.78F
PRESTON        PTSUNNY   60  34  38 NW18G30   29.77F
OWATONNA       CLOUDY    63  32  31 NW21G28   29.80R
FARIBAULT      PTSUNNY   63  37  39 W17G26    29.79S
$$

...ELSEWHERE IN MINNESOTA...


CITY           SKY/WX    TMP DP  RH WIND       PRES   REMARKS
MINNEAPOLIS    CLOUDY    59  41  51 NW15G25   29.78S
INTNL FALLS    CLOUDY    51  46  83 NW15G21   29.78R
DULUTH         LGT RAIN  48  46  93 NW13G23   29.71S
RED WING       CLOUDY    59  39  47 NW12G18   29.76R
REDWOOD FALLS  SUNNY     66  30  26 NW15G25   29.82F
MANKATO        MOSUNNY   66  35  31 NW16G24   29.80F
WORTHINGTON    SUNNY     68  40  35 W22G31    29.86F
FAIRMONT       SUNNY     69  32  25 NW15G23   29.83F
$$

...SOUTHWEST WISCONSIN...


CITY           SKY/WX    TMP DP  RH WIND       PRES   REMARKS
LA CROSSE      PTSUNNY   65  44  46 NW13      29.74F
PRAIRIE DU CHI SUNNY     68  31  25 W17G25    29.75F
BOSCOBEL       LGT RAIN  68  35  29 W14G30    29.75F
LONE ROCK      NOT AVBL
PLATTEVILLE    SUNNY     68  38  33 W18G31    29.77S
FORT MC COY    CLOUDY    57  45  63 NW8       29.75S
CAMP DOUGLAS   CLOUDY    55  45  67 W9        29.73S
MAUSTON-NEW LI CLOUDY    56  44  63 W7        29.73S
VIROQUA        FAIR      61  40  46 W9G20     29.75S
WIS DELLS      CLOUDY    57  42  55 W8        29.74S
$$

...ELSEWHERE IN WISCONSIN...


CITY           SKY/WX    TMP DP  RH WIND       PRES   REMARKS
MILWAUKEE      CLOUDY    62  42  47 W17G25    29.73S
MADISON        PTSUNNY   61  41  47 W12G18    29.73S
GREEN BAY      CLOUDY    57  47  69 W8        29.66R
EAU CLAIRE     NOT AVBL
BLACK RVR FLS  LGT RAIN  55  44  66 NW9G18    29.74S
MEDFORD        LGT RAIN  48  48 100 W10G22    29.69S
WAUSAU         LGT RAIN  50  47  89 W14       29.68R
WIS RAPIDS     CLOUDY    54  45  71 W12       29.73R
MARSHFIELD     LGT RAIN  52  45  77 W10       29.71R
RICE LAKE      NOT AVBL
$$

...NORTHEAST IOWA...


CITY           SKY/WX    TMP DP  RH WIND       PRES   REMARKS
WATERLOO       SUNNY     69  30  23 W17G23    29.79F
DUBUQUE        SUNNY     66  33  29 W18G31    29.78F
DECORAH        MOSUNNY   64  36  34 NW13G25   29.76F
MASON CITY     SUNNY     67  32  27 W17G26    29.82F
CHARLES CITY   SUNNY     66  30  26 NW12G26   29.80F
OELWEIN        SUNNY     68  32  26 W21G30    29.79F
$$

...ELSEWHERE IN IOWA...


CITY           SKY/WX    TMP DP  RH WIND       PRES   REMARKS
DES MOINES     MOSUNNY   76  41  28 W22G28    29.85F
IOWA CITY      SUNNY     73  35  25 W20G29    29.82F
FORT DODGE     SUNNY     72  43  35 W16G25    29.86F
MARSHALLTOWN   SUNNY     72  38  29 W17       29.82F
CEDAR RAPIDS   SUNNY     71  39  31 W20G31    29.80F
$$

...NORTHERN ILLINOIS...


CITY           SKY/WX    TMP DP  RH WIND       PRES   REMARKS
CHICAGO-OHARE  PTSUNNY   68  34  28 W20G30    29.74F
CHICAGO-MIDWAY PTSUNNY   71  31  22 W17G26    29.75S
MOLINE         SUNNY     74  33  22 W21G29    29.79F
ROCKFORD       MOSUNNY   68  36  30 W16G30    29.77F
PEORIA         SUNNY     74  31  20 W18       29.82F
$$

NOTE: "FAIR" INDICATES FEW OR NO CLOUDS BELOW 12,000 FEET WITH NO
SIGNIFICANT WEATHER AND/OR OBSTRUCTIONS TO VISIBILITY. WIND
SPEEDS ARE IN MILES-PER-HOUR.




USA.gov is the U.S. government's official web portal to all federal, state and local government web resources and services.